Weather History for Bartlesville, OK

Change the Weather History Date:

Sunday, August 31, 2014

  Actual Average Record
Temperature  
Mean Temperature 82 °F -  
Max Temperature 98 °F 91 °F 108 °F (2000)
Min Temperature 68 °F 65 °F 53 °F (1988)
Cooling Degree Days 17    
Growing Degree Days 32 (Base 50)    
Moisture  
Dew Point 68 °F    
Average Humidity 66    
Maximum Humidity 96    
Minimum Humidity 37    
Precipitation  
Precipitation 0.00 in - - ()
Sea Level Pressure  
Sea Level Pressure 29.83 in    
Wind  
Wind Speed 6 mph (South)    
Max Wind Speed 18 mph    
Max Gust Speed 30 mph    
Visibility 10 miles    
Events      
Averages and records for this station are not official NWS values.
T = Trace of Precipitation, MM = Missing Value Source: NWS Daily Summary

Daily Weather History Graph

Daily Weather History Graph

Search for Another Location

Airport:

Trip Planner

Search our weather history database for the weather conditions in past years. The results will help you decide how hot, cold, wet, or windy it might be!

Date:

Astronomy

Aug. 31, 2014 Rise Set
Actual Time 6:54 AM CDT 7:53 PM CDT
Civil Twilight 6:27 AM CDT 8:20 PM CDT
Nautical Twilight 5:56 AM CDT 8:51 PM CDT
Astronomical Twilight 5:23 AM CDT 9:24 PM CDT
Moon 12:32 PM CDT (8/31) 11:19 PM CDT (8/31)
Length of Visible Light 13h 52m
Length of Day
12h 59m
Waxing Crescent, 32% of the Moon is Illuminated
Aug 31
Waxing Crescent
Sep 2
First Quarter
Sep 8
Full
Sep 15
Last Quarter
Sep 24
New

Hourly Weather History & Observations

Time (CDT) Temp. Heat Index Dew Point Humidity Pressure Visibility Wind Dir Wind Speed Gust Speed Precip Events Conditions
12:53 AM 73.0 °F - 69.1 °F 87% 29.88 in 10.0 mi South 3.5 mph - N/A   Clear
1:53 AM 70.0 °F - 68.0 °F 93% 29.88 in 10.0 mi Calm Calm - N/A   Clear
2:53 AM 69.1 °F - 68.0 °F 96% 29.88 in 10.0 mi Calm Calm - N/A   Clear
3:53 AM 68.0 °F - 66.9 °F 96% 29.87 in 10.0 mi SSW 3.5 mph - N/A   Clear
4:53 AM 69.1 °F - 66.9 °F 93% 29.87 in 10.0 mi Calm Calm - N/A   Clear
5:53 AM 68.0 °F - 66.9 °F 96% 29.88 in 10.0 mi Calm Calm - N/A   Clear
6:53 AM 69.1 °F - 68.0 °F 96% 29.90 in 10.0 mi Calm Calm - N/A   Clear
7:53 AM 72.0 °F - 70.0 °F 93% 29.92 in 10.0 mi SSE 5.8 mph - N/A   Clear
8:53 AM 75.9 °F - 71.1 °F 85% 29.91 in 10.0 mi SSE 8.1 mph - N/A   Clear
9:53 AM 82.0 °F 86.7 °F 72.0 °F 71% 29.90 in 10.0 mi South 6.9 mph - N/A   Clear
10:53 AM 88.0 °F 93.8 °F 71.1 °F 57% 29.89 in 10.0 mi Variable 6.9 mph - N/A   Clear
11:53 AM 90.0 °F 96.4 °F 71.1 °F 54% 29.88 in 10.0 mi South 10.4 mph - N/A   Clear
12:53 PM 95.0 °F 101.3 °F 70.0 °F 44% 29.86 in 10.0 mi South 11.5 mph 19.6 mph N/A   Partly Cloudy
1:53 PM 95.0 °F 99.5 °F 68.0 °F 41% 29.83 in 10.0 mi South 11.5 mph 23.0 mph N/A   Partly Cloudy
2:53 PM 96.1 °F 99.9 °F 66.9 °F 38% 29.81 in 10.0 mi SSE 13.8 mph 23.0 mph N/A   Partly Cloudy
3:53 PM 96.1 °F 99.3 °F 66.0 °F 37% 29.78 in 10.0 mi South 15.0 mph 26.5 mph N/A   Clear
4:53 PM 95.0 °F 97.9 °F 66.0 °F 38% 29.76 in 10.0 mi South 12.7 mph 29.9 mph N/A   Clear
5:53 PM 93.0 °F 96.4 °F 66.9 °F 42% 29.75 in 10.0 mi South 16.1 mph 24.2 mph N/A   Clear
6:53 PM 91.0 °F 94.3 °F 66.9 °F 45% 29.72 in 10.0 mi South 18.4 mph 24.2 mph N/A   Clear
7:53 PM 87.1 °F 89.9 °F 66.9 °F 51% 29.71 in 10.0 mi South 11.5 mph 21.9 mph N/A   Clear
9:53 PM 84.9 °F 87.6 °F 66.9 °F 55% 29.73 in 10.0 mi South 12.7 mph 23.0 mph N/A   Clear
10:53 PM 82.9 °F 85.4 °F 66.9 °F 58% 29.74 in 10.0 mi South 10.4 mph 18.4 mph N/A   Clear
11:53 PM 82.9 °F 85.4 °F 66.9 °F 58% 29.75 in 10.0 mi South 12.7 mph 23.0 mph N/A   Clear